Home   Weather   Santa Fe   Past weeks
Flag for USA

Past Weather in Santa Fe, New Mexico, USA — Yesterday and Last 2 Weeks

Now
46 °F

Mostly cloudy.


Feels Like: 46 °F
Forecast: 64 / 35 °F
Wind: No wind

Location: Santa Fe County Municipal Airport

Current Time: May 22, 2019 at 2:54:19 am

Latest Report: May 22, 2019 at 1:53 am


Visibility: 10 mi

Pressure: 29.57 "Hg (22.82 "Hg at 2132m altitude)

Humidity: 51%

Dew Point: 29 °F

Location of Santa FeLocation

Past Weather in Santa Fe — Graph

°F

Santa Fe Temperature Yesterday

Maximum temperature yesterday: 57 °F (at 4:53 pm)
Minimum temperature yesterday: 34 °F (at 12:14 am)
Average temperature yesterday: 43 °F

High & Low Weather Summary for the Past Weeks

 TemperatureHumidityPressure
High79 °F (May 15, 2:53 pm)97% (May 10, 9:35 am)30.13 "Hg (May 10, 9:35 am)
Low32 °F (May 10, 10:28 am)14% (May 18, 3:53 pm)29.46 "Hg (May 20, 12:53 pm)
Average53 °F51%29.79 "Hg
* Reported May 7 12:53 am — May 22 12:53 am, Santa Fe. Weather by CustomWeather, © 2019

Note: Actual official high and low records may vary slightly from our data, if they occured in-between our weather recording intervals... More about our weather records

Advertising

Santa Fe Weather History for the Previous 24 Hours

Scroll right to see more
 ConditionsComfort  
Time TempWeatherWind HumidityBarometerVisibility
12:53 am
Wed, May 22
45 °FMostly cloudy.5 mph53%29.58 "Hg10 mi
11:53 pm
Tue, May 21
45 °FOvercast.5 mph63%29.58 "Hg10 mi
10:53 pm47 °FMostly cloudy.No wind56%29.57 "Hg10 mi
9:53 pm48 °FMostly cloudy.No wind54%29.55 "Hg10 mi
8:53 pm47 °FOvercast.9 mph61%29.54 "Hg10 mi
7:53 pm51 °FPartly sunny.12 mph42%29.51 "Hg10 mi
6:53 pm52 °FPartly sunny.10 mph45%29.53 "Hg10 mi
5:53 pm57 °FMore clouds than sun.14 mph32%29.49 "Hg10 mi
4:53 pm57 °FScattered clouds.15 mph34%29.49 "Hg10 mi
3:53 pm54 °FMostly cloudy.10 mph40%29.54 "Hg10 mi
2:53 pm51 °FMostly cloudy.13 mph42%29.56 "Hg10 mi
1:53 pm52 °FLight rain. Partly sunny.13 mph43%29.57 "Hg10 mi
12:53 pm50 °FMostly cloudy.18 mph44%29.59 "Hg10 mi
11:53 am47 °FLight rain. Mostly cloudy.14 mph52%29.61 "Hg10 mi
10:53 am45 °FMostly cloudy.12 mph53%29.60 "Hg10 mi
9:53 am42 °FLight rain. More clouds than sun.15 mph71%29.62 "Hg10 mi
8:53 am40 °FOvercast.16 mph77%29.62 "Hg10 mi
7:53 am38 °FOvercast.14 mph83%29.61 "Hg10 mi
6:53 am34 °FChilly.13 mph92%29.62 "Hg10 mi
5:53 am34 °FPassing clouds.13 mph88%29.62 "Hg10 mi
4:53 am35 °FMostly cloudy.16 mph85%29.59 "Hg10 mi
3:53 am34 °FPartly cloudy.15 mph88%29.57 "Hg10 mi
3:10 am34 °FMostly cloudy.16 mph92%29.71 "Hg10 mi
2:53 am34 °FMostly cloudy.10 mph92%29.58 "Hg10 mi
2:40 am35 °FOvercast.12 mph92%29.73 "Hg10 mi
Weather by CustomWeather, © 2019

See weather overview